PSLV R/B, 44862

Orbit data source: Space-Track

PSLV R/B, 44862 is space debris in LEO originally from a launch on Wed, 11 Dec 2019 UTC launched from the Sirharikota (SRI). Debris objects in space refer to the collection of defunct objects orbiting the Earth. Examples of debris include non-operational satellites, rocket bodies, and fragments generated from explosions, collisions, or faulty payload assembly.

Loading next visibility...
Identifier
44862, 2019-089L
Orbit
LEO
Country
Flag of ININ / IND
Related business
Manufacturer
VSSC/LPSC
Mission
Spacecraft
Bus & Motor
PS-4, Unknown motor
Mass
920 kg wet, 920 kg dry
Launch date (UTC)
2019-12-11 (6 years ago)
Launch vehicle
Unknown
Launch site
Sirharikota (SRI)
Object type
Payload
Rocket body
Debris
Shape & HBR
Cyl + Cyl + 2 Nozzle, 1.6 m
Radar Cross Section
6.185 m², Large (>1 m²)

Expand to show TLE details & history
Last TLE update: 1 day ago

TLE from 1 day ago
0 PSLV R/B
1 44862U 19089L   25242.01862764  .00021443  00000-0  57529-3 0  9995
2 44862  36.9701 104.9618 0019174 111.8865 248.3930 15.36999468316686
Epoch: 2025-08-30T00:26Z
TLE epoch observation values (Epoch: 2025-08-30T00:26:49.428Z)
Latitude
0.00001°
Longitude
119.79692°
Altitude
458.943 km
Speed
7.637 km/s
True Right ascension
06h 59m 50s
True Declination
0° 00' 00"
Sunlit
Object was in daylight at epoch
Visualization orbit readout
Latitude
Unknown
Longitude
Unknown
Altitude
Unknown
Speed
Unknown
Apparent Right ascension
Unknown
Apparent Declination
Unknown
Sunlit
N/A
Visualization observer readout
Local Sidereal Time
16:02:57
Azimuth
Unknown
Elevation
Unknown
Doppler factor
Unknown
Orbital elements
Apogee altitude
471.049 km
Perigee altitude
444.834 km
Semi-major axis
6,836.079 km
Eccentricity
0.00192
Inclination
36.9701°
RAAN
104.9618°
Arg. of periapsis
111.8865°
True anomaly
248.1889°
Mean anomaly
248.393°
Eccentric anomaly
248.29093°
Mean motion
3.84001 °/min
Orbital period
93.75 mins
BSTAR
0.00057529
Loading maneuver chart data...
Computing Atmospheric mass density...
Loading historical data...
Loading historical data...
Loading historical data...
Loading historical data...
Loading historical data...
Loading historical data...
Loading historical data...

Documentation

Showing up to 5 results
|